SM4TYA-13 Weather Reports


time (UTC)temp
C
wind
direction
speed
KPH
gust
KPH
rain 1hr
cm
rain 24hr
cm
rain mn
cm
humidity
%
barometer
mb
20260507103336 11 300 3.2 8.0 0.00 0.00 0.00 29 1015.3
20260507102436 11 302 3.2 8.0 0.00 0.00 0.00 28 1015.2
20260507101536 11 273 6.4 14.5 0.00 0.00 0.00 30 1015.1
20260507100635 11 187 4.8 14.5 0.00 0.00 0.00 31 1015.0
20260507095736 11 164 4.8 12.9 0.00 0.00 0.00 30 1015.0
20260507095046 12 132 4.8 11.3 0.00 0.00 0.00 27 1014.9
20260507093936 12 71 3.2 9.7 0.00 0.00 0.00 30 1014.9
20260507093036 11 80 4.8 14.5 0.00 0.00 0.00 29 1014.9
20260507092136 11 302 3.2 8.0 0.00 0.00 0.00 35 1014.8
20260507091236 11 289 3.2 8.0 0.00 0.00 0.00 35 1014.9
20260507090336 10 245 4.8 9.7 0.00 0.00 0.00 41 1015.0
20260507085436 10 247 3.2 9.7 0.00 0.00 0.00 39 1014.9
20260507084747 10 245 3.2 9.7 0.00 0.00 0.00 38 1014.9
20260507083636 10 270 3.2 9.7 0.00 0.00 0.00 40 1014.9
20260507082736 11 281 1.6 8.0 0.00 0.00 0.00 46 1014.8
20260507081835 9 281 4.8 9.7 0.00 0.00 0.00 47 1014.6
20260507080936 10 294 1.6 8.0 0.00 0.00 0.00 50 1014.7
20260507080036 8 280 3.2 6.4 0.00 0.00 0.00 54 1014.8
20260507075136 8 294 3.2 6.4 0.00 0.00 0.00 56 1014.8
20260507074236 7 322 3.2 6.4 0.00 0.00 0.00 53 1014.8
20260507073336 8 303 3.2 6.4 0.00 0.00 0.00 57 1014.6
20260507072436 7 304 3.2 4.8 0.00 0.00 0.00 58 1014.6
20260507071746 6 271 3.2 4.8 0.00 0.00 0.00 57 1014.6
20260507070636 6 276 3.2 6.4 0.00 0.00 0.00 59 1014.6
20260507065736 6 291 3.2 4.8 0.00 0.00 0.00 60 1014.6
20260507064836 6 300 1.6 4.8 0.00 0.00 0.00 60 1014.5
20260507063935 6 296 1.6 4.8 0.00 0.00 0.00 59 1014.5
20260507063036 5 271 1.6 4.8 0.00 0.00 0.00 60 1014.3
20260507062135 5 262 1.6 4.8 0.00 0.00 0.00 61 1014.4
20260507061447 5 231 1.6 4.8 0.00 0.00 0.00 60 1014.3
20260507060336 5 132 1.6 3.2 0.00 0.00 0.00 59 1014.2
20260507055436 5 133 1.6 4.8 0.00 0.00 0.00 61 1014.1
20260507054536 5 124 3.2 4.8 0.00 0.00 0.00 59 1014.1
20260507053636 6 130 1.6 4.8 0.00 0.00 0.00 54 1014.0
20260507052736 5 114 1.6 4.8 0.00 0.00 0.00 57 1014.0
20260507051835 5 120 1.6 3.2 0.00 0.00 0.00 57 1014.0
20260507050935 3 252 1.6 4.8 0.00 0.00 0.00 58 1014.0
20260507050036 3 258 0.0 1.6 0.00 0.00 0.00 59 1013.9
20260507045135 3 134 1.6 3.2 0.00 0.00 0.00 60 1013.8
20260507044236 2 134 1.6 3.2 0.00 0.00 0.00 62 1013.8
20260507043336 2 119 3.2 6.4 0.00 0.00 0.00 63 1013.7
20260507042645 2 108 1.6 4.8 0.00 0.00 0.00 63 1013.7
20260507041536 1 104 0.0 3.2 0.00 0.00 0.00 64 1013.5
20260507040845 1 104 0.0 3.2 0.00 0.00 0.00 66 1013.6
20260507035736 0 0 0.0 0.0 0.00 0.00 0.00 71 1013.3
20260507034836 0 103 0.0 3.2 0.00 0.00 0.00 72 1013.3
20260507034147 0 103 0.0 3.2 0.00 0.00 0.00 75 1013.2
20260507033036 -1 103 0.0 1.6 0.00 0.00 0.00 75 1013.2
20260507032136 0 95 1.6 3.2 0.00 0.00 0.00 75 1013.1
20260507031235 -1 89 0.0 3.2 0.00 0.00 0.00 77 1013.0
20260507030336 -2 96 1.6 3.2 0.00 0.00 0.00 80 1012.9
20260507025649 -2 101 1.6 3.2 0.00 0.00 0.00 81 1013.0
20260507024536 -2 101 0.0 1.6 0.00 0.00 0.00 81 1013.1
20260507023636 -2 98 1.6 3.2 0.00 0.00 0.00 81 1013.0
20260507022946 -2 93 1.6 4.8 0.00 0.00 0.00 82 1013.0
20260507021835 -2 91 0.0 3.2 0.00 0.00 0.00 82 1012.9
20260507020936 -2 99 0.0 1.6 0.00 0.00 0.00 82 1012.9
20260507020036 -1 99 0.0 1.6 0.00 0.00 0.00 81 1012.9
20260507015136 -1 100 0.0 1.6 0.00 0.00 0.00 80 1012.8
20260507014236 -1 96 1.6 6.4 0.00 0.00 0.00 80 1012.5
20260507013336 -1 95 1.6 3.2 0.00 0.00 0.00 80 1012.7
20260507012436 -1 92 1.6 1.6 0.00 0.00 0.00 78 1012.6
20260507011535 -1 93 0.0 1.6 0.00 0.00 0.00 77 1012.5
20260507010847 -1 93 1.6 3.2 0.00 0.00 0.00 77 1012.5
20260507005736 -1 92 1.6 1.6 0.00 0.00 0.00 77 1012.4
20260507004836 -1 92 0.0 1.6 0.00 0.00 0.00 77 1012.4
20260507003935 0 93 1.6 3.2 0.00 0.00 0.00 76 1012.2
20260507003246 0 92 1.6 3.2 0.00 0.00 0.00 76 1012.3
20260507002136 0 92 0.0 3.2 0.00 0.00 0.00 75 1012.1
20260507001235 0 93 1.6 3.2 0.00 0.00 0.00 74 1012.2
20260507000336 0 93 1.6 3.2 0.00 0.00 0.00 74 1012.0
20260506235436 0 0 0.0 0.0 0.00 0.00 0.00 73 1012.0
20260506234748 0 0 0.0 0.0 0.00 0.00 0.00 73 1011.8
20260506233636 1 94 1.6 3.2 0.00 0.00 0.00 72 1011.8
20260506232948 0 96 0.0 3.2 0.00 0.00 0.00 73 1011.8
20260506231836 1 87 1.6 4.8 0.00 0.00 0.00 71 1011.7
20260506230936 1 85 0.0 3.2 0.00 0.00 0.00 70 1011.7
20260506230036 2 89 3.2 6.4 0.00 0.00 0.00 70 1011.6
20260506225135 1 88 1.6 4.8 0.00 0.00 0.00 69 1011.4
20260506224235 2 95 0.0 3.2 0.00 0.00 0.00 68 1011.4
20260506223547 2 99 0.0 1.6 0.00 0.00 0.00 67 1011.3
20260506222436 2 98 1.6 4.8 0.00 0.00 0.00 65 1011.3
20260506221535 3 86 1.6 4.8 0.00 0.00 0.00 65 1011.3
20260506220635 3 77 1.6 3.2 0.00 0.00 0.00 63 1011.0
20260506215736 3 77 0.0 3.2 0.00 0.00 0.00 62 1011.0
20260506215049 4 0 0.0 0.0 0.00 0.00 0.00 60 1011.0
20260506213936 4 77 0.0 1.6 0.00 0.00 0.00 59 1011.0
20260506213035 4 75 1.6 4.8 0.00 0.00 0.00 57 1010.9
20260506212136 5 90 1.6 3.2 0.00 0.00 0.00 57 1010.9
20260506211236 5 89 1.6 3.2 0.00 0.00 0.00 55 1010.8
20260506210336 6 87 1.6 4.8 0.00 0.00 0.00 52 1010.8
20260506205436 6 77 0.0 3.2 0.00 0.00 0.00 52 1010.9
20260506204745 6 74 0.0 4.8 0.00 0.00 0.00 50 1010.8
20260506203847 7 103 3.2 9.7 0.00 0.00 0.00 48 1010.9
20260506202736 7 67 3.2 8.0 0.00 0.00 0.00 49 1010.8
20260506201836 7 46 1.6 6.4 0.00 0.00 0.00 48 1010.7
20260506200935 7 342 1.6 4.8 0.00 0.00 0.00 47 1010.6
20260506200036 7 7 3.2 9.7 0.00 0.00 0.00 47 1010.6
20260506195136 7 12 4.8 12.9 0.00 0.00 0.00 46 1010.5
20260506194236 7 11 4.8 12.9 0.00 0.00 0.00 44 1010.6
20260506193336 8 355 4.8 9.7 0.00 0.00 0.00 43 1010.5
20260506192436 8 18 6.4 14.5 0.00 0.00 0.00 44 1010.5
20260506191536 8 51 3.2 9.7 0.00 0.00 0.00 45 1010.5
20260506190635 8 35 1.6 6.4 0.00 0.00 0.00 47 1010.5
20260506185735 8 27 1.6 3.2 0.00 0.00 0.00 46 1010.4
20260506184836 8 21 4.8 8.0 0.00 0.00 0.00 46 1010.4
20260506183935 8 14 3.2 6.4 0.00 0.00 0.00 45 1010.4
20260506183036 8 14 4.8 14.5 0.00 0.00 0.00 42 1010.2
20260506182135 9 37 6.4 12.9 0.00 0.00 0.00 40 1010.2
20260506181450 9 75 3.2 9.7 0.00 0.00 0.00 36 1010.1
20260506180336 9 111 8.0 22.5 0.00 0.00 0.00 37 1010.1
20260506175650 9 80 6.4 17.7 0.00 0.00 0.00 35 1010.0
20260506174536 9 348 8.0 19.3 0.00 0.00 0.00 36 1009.8
20260506173635 10 39 9.7 30.6 0.00 0.00 0.00 37 1010.0
20260506172736 10 99 6.4 19.3 0.00 0.00 0.00 34 1009.8
20260506171836 10 68 0.0 8.0 0.00 0.00 0.00 35 1009.8
20260506170936 10 115 0.0 1.6 0.00 0.00 0.00 36 1009.6
20260506170036 10 117 1.6 3.2 0.00 0.00 0.00 33 1009.5
20260506165136 10 93 3.2 9.7 0.00 0.00 0.00 33 1009.6
20260506164235 10 33 1.6 6.4 0.00 0.00 0.00 33 1009.6
20260506163335 11 61 1.6 6.4 0.00 0.00 0.00 32 1009.6
20260506162436 10 56 3.2 11.3 0.00 0.00 0.00 33 1009.6
20260506161536 10 20 4.8 14.5 0.00 0.00 0.00 34 1009.7
20260506160636 11 10 9.7 17.7 0.00 0.00 0.00 34 1009.7
20260506155735 11 359 9.7 20.9 0.00 0.00 0.00 32 1009.4
20260506155047 11 20 4.8 20.9 0.00 0.00 0.00 33 1009.5
20260506154150 11 8 3.2 8.0 0.00 0.00 0.00 29 1009.6
20260506153035 11 51 1.6 6.4 0.00 0.00 0.00 30 1009.6
20260506152136 11 33 3.2 11.3 0.00 0.00 0.00 28 1009.6
20260506151235 11 65 1.6 4.8 0.00 0.00 0.00 30 1009.7
20260506150336 11 24 4.8 9.7 0.00 0.00 0.00 37 1009.7
20260506145646 11 24 3.2 9.7 0.00 0.00 0.00 28 1009.7
20260506144536 11 38 3.2 9.7 0.00 0.00 0.00 27 1009.9
20260506143636 11 356 1.6 6.4 0.00 0.00 0.00 31 1009.8
20260506142736 11 303 4.8 11.3 0.00 0.00 0.00 35 1009.9
20260506141836 12 343 6.4 17.7 0.00 0.00 0.00 32 1010.0
20260506140935 11 332 4.8 17.7 0.00 0.00 0.00 34 1009.9
20260506140035 11 325 4.8 16.1 0.00 0.00 0.00 36 1010.0
20260506135348 11 309 9.7 17.7 0.00 0.00 0.00 37 1010.0
20260506134236 10 301 4.8 12.9 0.00 0.00 0.00 39 1010.1
20260506133336 10 306 6.4 12.9 0.00 0.00 0.00 37 1010.1
20260506132645 10 310 8.0 16.1 0.00 0.00 0.00 39 1010.3
20260506131535 11 286 8.0 19.3 0.00 0.00 0.00 36 1010.4
20260506130635 11 261 6.4 16.1 0.00 0.00 0.00 38 1010.3
20260506125736 10 271 8.0 12.9 0.00 0.00 0.00 38 1010.4
20260506124835 10 303 6.4 12.9 0.00 0.00 0.00 38 1010.5
20260506123936 11 351 6.4 14.5 0.00 0.00 0.00 39 1010.5
20260506123036 10 9 4.8 9.7 0.00 0.00 0.00 40 1010.5
20260506122136 10 299 6.4 14.5 0.00 0.00 0.00 38 1010.5
20260506121236 10 303 6.4 14.5 0.00 0.00 0.00 38 1010.7
20260506120336 10 288 8.0 16.1 0.00 0.03 0.00 35 1010.6
20260506115648 10 275 8.0 17.7 0.00 0.03 0.00 36 1010.7
20260506114536 11 299 6.4 17.7 0.00 0.03 0.00 37 1010.7
20260506113636 11 306 8.0 16.1 0.00 0.03 0.00 37 1010.8
20260506112735 11 346 9.7 25.7 0.00 0.03 0.00 35 1010.8
20260506111836 11 8 9.7 25.7 0.00 0.03 0.00 34 1010.9
20260506110936 11 327 4.8 20.9 0.00 0.03 0.00 35 1010.9
20260506110247 11 317 6.4 17.7 0.00 0.03 0.00 37 1010.8
20260506105136 10 277 6.4 12.9 0.00 0.03 0.00 37 1011.0
20260506104236 10 276 6.4 14.5 0.00 0.03 0.00 39 1011.0